sat.trackr.live / text

‹ back to catalog

STARLINK-6207

NORAD 56900 · 2023-083AA

PAYLOAD ACTIVE UNKNOWN

§ Identity

Operator
Country
US
Launch date
2023-06-12
Launch site
AFETR
Launch vehicle
Mass (kg)
RCS (m²)

Purposes: comms

External: N2YO · Heavens-Above · Gunter

§ Orbital elements

Epoch: 2026-09-20T20:44:07.597248Z

Period
94.27 min
Inclination
43.0052°
Eccentricity
0.0001852
Mean motion
15.27572164 rev/d
Perigee alt
481.8 km
Apogee alt
484.3 km
Semi-major
6,861.2 km
B*
-1.3721e-5
RAAN
48.7803°
Arg perigee
288.6640°
Mean anomaly
71.4010°
Rev number
18,161

§ Raw data

STARLINK-62071 56900U 23083AA  26263.86397682 -.00000640  00000+0 -13721-4 0  99932 56900  43.0052  48.7803 0001852 288.6640  71.4010 15.27572164181616

JSON: /api/v1/satellites/56900 · /tle

For live sub-satellite position, see the globe view (requires WebGL).

§ Visibility from observer

Set your observer location to see the next 7 days of passes ≥ 10°. The values pass through the URL so the page stays shareable.

No JS? Fill the form by hand. The geolocation button needs JavaScript.